Content
SEND FEEDBACK

Daily
Averages
Monthly
Summary
United States of America

CAPUTA, SOUTH DAKOTA


Home > North America > United States > South Dakota
Elevation: 3149 feet     Latitude: 44 03N     Longitude: 103 04W

WEATHER
 
SELECT A DAY
Number of Records: 204,958;   Date Range: 1/1/95 - 12/17/14
 
SHARE

PRINT THIS DATA

[ ← Previous Day ]
WEATHER ALMANAC - NOVEMBER 9, 2013
[ Next Day → ]
[ °C ]   °F
Weather ElementAverageHighLow
Temperature38.8 °F48 °F (10:52 am)28 °F (7:52 pm)
Dewpoint26 °F30.9 °F (10:52 am)21.9 °F (6:52 pm)
Humidity61.4 %79 % (11:52 pm)42 % (2:52 pm)
Barometer30.24 in30.38 in (7:52 pm)30.02 in (1:52 am)
Wind Speed7.8 mph24.2 mph (12:52 pm)
Wind Gust28.8 mph (1:52 pm)
Weather ElementAverage
Visibility10 mi
Wind DirectionSSW (197 °)

Weather ElementTotal
Precipitation---
Heating Degree Days27 (Base 65)
Averaged from 23 records on November 9, 2013
WEATHER CONDITIONS BREAKOUT
WIND DIRECTION BREAKOUT
WEATHER BY HOUR - NOVEMBER 9, 2013
[ °C ]   °F
Local TimeTemperatureDewpointHumidityBarometerVisibilityWind DirectionWind SpeedGust SpeedPrecipitationEventsConditions
1:52 AM39.9 °F27.0 °F60 %30.02 in10.0 miNE (40°)3.5 mphOvercast
2:52 AM39.9 °F28.0 °F63 %30.05 in10.0 miWNW (290°)3.5 mphOvercast
3:52 AM41.0 °F27.0 °F57 %30.07 in10.0 miNW (310°)3.5 mphOvercast
4:52 AM37.9 °F28.0 °F68 %30.12 in10.0 miCalmOvercast
5:52 AM39.9 °F28.0 °F63 %30.15 in10.0 miNorth (360°)6.9 mphOvercast
6:52 AM41.0 °F27.0 °F57 %30.17 in10.0 miNNW (330°)8.1 mphOvercast
7:52 AM39.9 °F28.9 °F65 %30.21 in10.0 miNorth (360°)4.6 mphOvercast
8:52 AM43.0 °F28.0 °F56 %30.23 in10.0 miNorth (350°)9.2 mphOvercast
9:52 AM46.9 °F30.0 °F52 %30.22 in10.0 miNorth (360°)17.3 mphScattered Clouds
10:52 AM48.0 °F30.9 °F52 %30.23 in10.0 miNorth (350°)18.4 mphMostly Cloudy
11:52 AM46.0 °F30.9 °F56 %30.24 in10.0 miNorth (350°)19.6 mphOvercast
12:52 PM48.0 °F27.0 °F44 %30.23 in10.0 miNorth (350°)24.2 mph27.6 mphOvercast
1:52 PM45.0 °F25.0 °F46 %30.24 in10.0 miNorth (10°)23.0 mph28.8 mphScattered Clouds
2:52 PM48.0 °F26.1 °F42 %30.26 in10.0 miNorth (360°)13.8 mphMostly Cloudy
3:52 PM41.0 °F26.1 °F55 %30.29 in10.0 miNNE (20°)5.8 mphClear
4:52 PM37.9 °F23.0 °F55 %30.32 in10.0 miNNW (340°)4.6 mphClear
5:52 PM34.0 °F23.0 °F64 %30.35 in10.0 miCalmClear
6:52 PM30.0 °F21.9 °F72 %30.37 in10.0 miCalmClear
7:52 PM28.0 °F21.9 °F78 %30.38 in10.0 miCalmClear
8:52 PM28.9 °F21.9 °F75 %30.38 in10.0 miCalmClear
9:52 PM28.0 °F21.9 °F78 %30.36 in10.0 miCalmClear
10:52 PM30.0 °F23.0 °F75 %30.32 in10.0 miSouth (170°)6.9 mphClear
11:52 PM30.0 °F24.1 °F79 %30.32 in10.0 miSouth (180°)6.9 mphClear
Hourly data recorded from KRAP, located miles away from Caputa, South Dakota







STORIES FROM OUR PARTNERS